STARLINK-5760 (55591 NORAD) Tracking and Keplerian Element Data

This shows tracking and keplerian element data for the satellite.

Feedback or suggestion? Click here.




ElementValue
Catalog55591
NameSTARLINK-5760
Epoch Orbit130
Epoch Day84.91667824
Epoch Year2023
RAAN111.8497
Inclination42.9971
Eccentricity0.0001406
Argument of Perigee267.4305
Mean Anonmoly71.9212
Mean Motion15.08420248
Decay Rate-0.01166673
L11 55591U 23020Y 23084.91667824 -.01166673 00000+0 -80228-1 0 9994
L22 55591 42.9971 111.8497 0001406 267.4305 71.9212 15.08420248 1308



Live tracking and technical data element details for STARLINK-5760 (NORAD 55591). STARLINK-5760 can be tracked NOW for your location showing map with azimuth and elevation plus other details from your city location.







IsCatalogInMostPopularTable: catalog: 55591, numindb: -1

Insert: records affected: 1


GetName: 55591 STARLINK-5760

Hit Count: inserted at: Tue, 28 Mar 2023 02:08:36 GMT